Location: Street
(51.1247°N, 2.7429°W)
Time: 09:18:01
(UTC+00:00)

Transit 2A Rocket - Pass Details

Date: 27 November 2020
Orbit: 592 x 911 km, 66.7° (Epoch: 16 January)

Event Time Altitude Azimuth Distance (km) Brightness Sun altitude
Exits shadow 06:42:14 10° 317° (NW) 2,433 7.0 -9.9°
Reaches altitude 10° 06:42:25 10° 319° (NW) 2,393 7.0 -9.8°
Maximum altitude 06:45:32 15° 353° (N) 1,993 6.9 -9.4°
Drops below altitude 10° 06:48:32 10° 29° (NNE) 2,268 7.5 -8.9°
Sets 06:51:51 0° 53° (NE) 3,118 8.6 -8.5°
